User: anonymous   Login
Location: Unspecified
(0.0000°N, 0.0000°E)
Time: 07:19:04
(UTC+00:00)
Language:

S-NET D - Orbit

View from above orbital plane
View from above orbital plane
View from above satellite
View from above satellite

Ground track
Ground track

The orbit data is extracted from the following two-line orbital elements,

1 43186U 18014G   22225.67398190  .00001517  00000-0  13299-3 0  9993
2 43186  97.6517 130.3123 0012223 105.3011 254.9563 14.98065619247481
Epoch (UTC): 13 August 2022 16:10:32
Eccentricity: 0.0012223
inclination: 97.6517°
perigee height: 564 km
apogee height: 581 km
right ascension of ascending node: 130.3123°
argument of perigee: 105.3011°
revolutions per day: 14.98065619
mean anomaly at epoch: 254.9563°
orbit number at epoch: 24748

The dashed part of the orbit path shows where the satellite is in the earth's shadow,  

DLR